Wind_Speed
9 8 7 6 7 7 3 11 1 22 6 5 5 2 6 8 13 12 12 7 5 10 10 9 9 9 9 8 8 9 9 9 10 10 10 10 10 11 11 11 11 11 11 11 11 12 13 13 13
10 9 8 9 6 5 18 16 18 11 9 6 6 4 8 12 14 15 11 8 9 13 14 13 13 12 12 12 12 13 13 13 14 14 14 14 14 14 14 15 15 15 15 15 16 16 16 16 17
11 11 10 16 9 13 20 11 18 4 13 9 8 8 11 14 16 13 11 11 13 16 18 18 18 18 17 16 16 17 16 16 16 16 17 18 18 19 20 20 21 21 21 21 22 22 22 22 22
13 13 16 9 14 15 23 36 22 18 17 18 10 9 11 15 11 9 9 10 13 17 20 20 19 18 18 16 16 17 17 18 18 18 20 21 21 22 23 23 23 24 25 26 26 26 27 27 27
15 14 14 18 9 11 23 10 17 20 14 19 11 12 14 9 6 5 5 8 16 18 19 19 20 18 17 18 20 21 21 20 24 23 22 25 26 27 28 28 28 29 30 31 31 32 32 32 33
17 16 16 7 2 22 15 11 21 18 13 18 19 10 10 5 8 9 7 9 12 17 19 20 21 19 19 19 23 25 26 26 27 28 28 25 26 27 29 31 33 34 35 36 36 37 38 38 39
23 21 15 9 4 27 27 26 21 20 28 13 11 6 5 6 11 13 12 14 14 15 17 19 22 24 25 26 25 26 29 30 28 28 29 29 31 29 31 33 33 36 38 37 39 41 42 42 42
10 20 21 9 2 23 30 29 24 28 13 14 17 13 10 9 14 16 18 18 20 20 21 22 23 24 26 27 27 28 25 24 27 29 31 32 33 33 35 35 37 38 41 40 42 45 46 44 45
8 3 12 1 6 17 31 20 26 26 20 21 19 18 14 14 18 19 20 19 20 19 22 24 23 23 22 24 25 26 27 30 28 29 31 31 32 32 33 36 36 40 41 42 45 49 47 49 50
9 20 15 7 12 19 31 21 26 17 23 24 18 17 17 19 21 20 21 19 19 20 23 24 25 25 26 26 26 26 28 28 30 28 27 28 28 29 31 33 33 35 36 38 41 45 46 50 52
12 12 3 9 23 17 19 6 31 11 20 20 7 13 16 18 19 21 23 24 23 22 25 25 25 24 24 24 22 22 21 19 19 24 25 27 29 32 33 36 38 40 40 40 40 41 42 45 49
13 18 14 17 30 17 10 22 25 14 19 21 19 17 18 19 18 19 23 24 22 23 22 19 18 18 16 16 17 17 19 22 24 25 29 31 34 36 39 41 44 45 47 47 47 47 46 44 45
15 14 18 17 20 21 20 27 24 15 27 27 23 19 18 20 21 18 19 21 20 14 11 10 12 13 15 17 19 22 24 26 28 28 31 34 37 38 39 43 45 47 48 50 50 51 50 50 49
12 18 13 21 14 20 21 27 19 23 25 25 21 20 20 21 21 16 18 16 12 10 11 12 15 16 18 22 23 25 27 30 32 36 38 37 39 42 45 48 48 48 49 51 51 52 54 54 54
17 15 15 17 17 20 21 23 23 25 26 21 21 21 22 20 15 15 14 14 13 13 15 17 18 19 22 24 27 30 31 35 38 41 42 43 44 44 45 47 50 52 54 54 54 54 54 55 54
15 16 16 17 16 19 17 15 22 23 24 21 22 23 22 18 16 15 14 16 17 18 21 23 25 25 26 30 33 34 36 39 42 44 46 47 48 50 52 52 52 52 51 53 54 56 58 59 57
15 14 12 13 23 17 14 11 14 30 27 21 23 23 21 19 19 17 18 20 22 24 24 27 29 32 34 36 36 38 41 43 46 47 49 50 52 52 53 54 52 51 52 55 58 59 59 57 58
8 10 11 16 25 28 19 13 13 25 32 27 26 25 23 19 21 22 21 25 26 28 30 32 33 34 35 38 39 41 43 45 47 50 52 54 56 56 56 51 50 51 53 57 59 57 57 58 58
17 13 19 14 22 30 33 21 16 20 32 31 27 25 22 23 24 25 25 28 31 33 33 35 36 36 38 39 41 42 44 47 50 52 53 54 55 53 51 52 54 56 56 55 56 59 60 59 60
21 22 19 16 18 29 27 22 19 21 29 34 31 24 23 23 25 27 28 27 30 35 36 36 37 38 40 41 44 45 47 50 51 53 54 55 51 52 55 57 58 59 58 59 61 61 59 60 62
20 23 21 17 18 33 38 33 22 24 23 31 35 25 23 25 28 30 31 30 29 30 38 35 37 41 42 44 47 48 51 52 54 56 54 52 54 55 56 58 59 61 61 62 63 60 61 61 63
20 18 21 18 23 24 26 25 20 16 21 24 35 32 26 25 28 32 37 38 36 35 33 35 41 43 44 46 49 51 54 56 57 55 55 56 55 56 58 60 62 64 64 62 60 61 62 61 58
18 29 20 27 32 32 30 30 20 16 23 28 38 34 29 24 27 31 34 42 44 44 39 36 41 44 47 49 51 54 56 58 54 55 54 53 56 59 61 63 63 60 58 59 61 58 56 52 49
23 30 31 32 28 32 27 28 24 19 29 21 31 32 30 23 25 31 37 43 43 40 42 44 45 47 48 50 54 56 56 53 53 52 53 56 59 62 61 57 56 58 59 58 56 52 47 42 42
26 29 25 28 25 25 19 19 15 22 33 33 32 37 37 33 30 31 40 44 42 40 40 43 45 48 49 51 54 54 53 52 52 55 58 61 63 61 55 57 57 57 55 55 48 44 44 41 44
26 26 25 26 19 16 23 20 20 32 27 32 38 42 42 35 29 36 43 43 40 39 42 45 48 50 51 52 53 51 52 51 54 58 62 64 60 55 55 55 55 54 54 46 41 42 42 44 48
20 23 18 23 23 25 18 15 31 26 38 37 26 31 35 33 35 37 36 38 40 42 44 46 47 49 51 52 50 51 50 54 58 63 64 58 56 57 58 56 54 50 47 42 41 42 42 45 47
22 20 18 23 29 29 26 22 31 40 41 24 21 24 30 31 35 31 31 34 40 44 46 45 46 48 48 47 47 49 53 58 62 62 56 56 59 61 60 57 52 48 40 39 41 43 40 40 38
23 25 31 29 22 25 26 21 29 25 26 15 24 33 34 22 34 36 35 37 41 44 44 45 45 45 44 43 47 51 56 60 58 55 57 60 63 60 50 42 37 35 37 39 38 38 36 36 34
12 21 26 26 26 30 34 30 25 11 17 32 34 32 35 31 33 35 39 39 41 42 43 44 42 42 41 45 49 54 59 55 53 58 60 61 36 34 29 30 31 34 35 33 33 32 33 34 32
Wind_Direction
194 193 184 132 129 108 350 45 182 266 221 247 272 252 306 311 313 318 316 307 201 189 189 198 207 203 200 203 210 216 205 212 221 228 235 237 239 244 247 248 247 247 251 256 260 263 263 263 264
183 175 174 137 163 116 230 146 198 261 300 256 219 272 297 314 314 311 305 274 215 205 203 208 217 222 217 217 222 225 222 218 222 229 233 237 242 247 252 256 256 255 254 254 254 254 255 260 261
186 167 156 135 72 350 283 195 237 236 281 241 256 261 292 307 303 294 278 246 219 211 214 217 221 225 225 228 225 230 233 237 237 242 249 251 253 254 255 257 259 258 258 259 260 260 260 259 258
185 168 151 112 69 269 285 289 107 303 275 273 259 279 290 293 289 285 289 258 234 237 235 230 229 228 232 238 238 241 243 252 254 262 263 263 263 264 267 269 268 268 269 269 268 267 267 264 262
187 177 162 132 84 268 290 298 1 294 293 273 285 292 298 305 293 308 287 259 244 248 251 250 246 247 255 264 261 262 257 259 264 273 268 271 273 276 278 277 277 280 282 280 279 278 276 274 271
194 191 187 137 1 258 260 310 293 272 162 299 308 291 304 291 285 298 287 257 248 256 260 255 254 257 267 263 270 272 272 273 278 274 275 276 278 280 284 285 286 286 284 285 284 283 281 278 278
205 207 189 159 192 265 266 256 248 243 271 267 295 312 272 284 288 286 283 279 268 259 263 257 256 261 267 269 276 278 277 278 284 283 285 287 289 291 288 286 288 287 287 286 288 286 282 281 281
179 201 181 172 199 252 266 277 245 272 270 335 301 320 311 310 295 288 289 284 279 279 276 273 273 272 275 278 284 287 285 287 290 292 290 291 292 292 291 293 290 291 289 288 286 283 281 285 284
145 158 118 69 246 256 263 253 259 279 282 273 281 292 305 310 293 290 287 284 284 284 281 279 277 274 271 285 288 290 285 290 291 290 289 289 290 293 294 289 292 289 293 291 287 284 287 285 282
153 119 80 276 246 250 240 238 277 258 270 277 287 292 303 299 297 295 289 286 289 291 286 285 287 290 290 288 288 288 287 291 296 298 299 301 304 306 303 302 302 300 296 295 293 293 289 287 285
184 159 150 233 216 246 259 216 274 281 296 290 304 295 297 295 298 303 300 300 294 293 290 290 292 290 290 294 295 298 301 302 304 307 307 303 302 300 301 300 299 299 297 297 296 295 291 286 285
205 187 218 196 226 215 246 256 250 275 265 268 300 307 300 293 292 290 293 292 293 290 289 292 293 300 306 309 310 306 306 302 301 301 301 302 303 303 304 303 303 302 301 300 300 298 295 295 291
223 217 230 223 226 219 231 237 255 247 268 276 296 299 294 290 289 292 286 288 287 286 284 295 305 309 306 304 304 305 304 305 303 298 304 304 303 302 301 301 297 296 296 297 297 297 298 296 294
232 242 240 243 246 233 230 255 268 242 276 283 294 292 292 293 293 292 289 286 282 286 286 293 295 299 302 301 301 301 304 303 303 304 303 303 303 302 302 303 299 294 290 289 291 292 293 295 294
235 252 248 253 255 252 253 263 271 274 283 285 290 293 293 291 290 286 280 274 273 280 284 289 290 297 298 301 305 305 306 307 309 307 305 303 302 301 299 299 297 295 293 291 292 292 289 290 288
245 251 261 259 248 247 263 273 265 279 279 285 295 298 298 294 293 286 282 280 283 287 291 295 299 301 303 305 306 305 306 306 306 305 304 304 303 302 301 300 297 292 287 287 289 289 289 290 289
247 253 249 253 280 266 266 260 226 272 287 296 297 299 296 289 288 287 286 288 293 298 298 300 303 306 306 304 303 302 303 305 304 305 303 303 301 300 299 299 296 292 292 291 290 289 288 287 286
260 293 221 259 261 286 280 274 264 252 287 300 302 301 295 284 281 284 289 290 293 296 300 304 304 303 304 302 303 303 304 304 305 305 303 303 302 302 301 299 297 295 293 291 291 289 288 286 284
191 243 273 232 265 277 282 277 262 245 277 292 301 300 295 289 282 285 288 296 300 301 304 304 304 305 301 302 301 303 304 305 305 303 302 302 302 302 300 299 297 295 295 293 289 287 286 285 284
211 213 225 242 237 255 257 278 266 255 257 280 295 300 296 289 288 291 293 296 295 297 299 302 305 300 301 303 304 306 306 304 303 304 304 304 304 303 302 302 301 299 297 294 291 289 287 287 286
239 235 236 230 243 255 264 273 269 267 262 264 284 298 288 288 293 295 294 295 292 291 291 305 297 302 303 306 307 308 305 306 306 308 308 307 305 303 301 301 300 299 298 295 293 290 290 288 286
256 261 247 233 230 252 277 286 282 286 275 266 269 290 286 273 276 284 291 297 298 292 307 299 302 303 307 307 308 307 308 308 309 309 308 307 306 304 303 302 300 299 298 298 296 294 293 291 289
243 230 238 244 249 254 250 259 269 270 251 273 262 282 286 268 271 281 284 282 297 306 307 303 301 305 307 308 307 309 309 309 309 308 308 307 307 305 304 302 301 302 303 301 299 297 297 294 294
244 251 251 263 266 264 274 273 266 241 259 252 252 267 281 282 267 262 268 283 300 303 305 305 306 307 307 308 308 308 308 308 308 308 307 307 306 306 304 305 305 304 303 303 302 299 298 294 302
259 265 260 262 268 284 303 273 254 246 244 238 241 257 280 284 283 276 277 289 297 301 301 302 303 304 305 305 306 308 307 307 308 308 309 309 308 307 307 306 305 305 305 306 303 302 298 294 299
268 260 257 258 246 264 281 233 240 257 274 264 258 263 269 276 276 270 279 293 299 300 302 302 303 302 305 307 308 307 308 309 310 310 310 310 310 309 306 306 307 308 308 305 303 306 301 298 300
236 266 276 248 248 235 251 288 277 287 277 278 260 263 270 275 278 282 294 297 302 305 303 302 303 305 307 308 308 310 311 312 312 312 312 311 309 307 305 306 308 306 306 301 305 309 307 304 303
254 228 247 251 265 264 255 246 255 263 277 237 263 281 279 277 278 285 295 299 306 305 303 304 303 305 307 309 312 314 315 314 314 313 311 310 309 308 306 305 304 305 303 306 305 308 309 305 309
277 258 239 244 246 273 265 244 256 260 262 260 281 296 288 278 294 306 308 303 304 301 303 304 308 310 311 313 316 317 316 315 314 313 312 313 312 310 307 306 306 303 305 309 309 309 305 304 312
259 229 271 246 259 255 262 257 234 263 271 269 286 282 277 279 284 301 305 307 299 303 305 308 310 312 315 318 319 318 319 317 316 316 315 316 323 329 331 323 318 313 313 312 314 309 305 308 306
Height
5913 5914 5915 5917 5920 5919 5920 5912 5923 5915 5917 5915 5914 5915 5915 5915 5913 5914 5912 5911 5911 5911 5911 5912 5912 5912 5913 5914 5914 5915 5913 5914 5914 5915 5915 5915 5914 5915 5915 5915 5915 5914 5914 5914 5914 5914 5914 5914 5914
5913 5915 5916 5917 5918 5915 5918 5908 5910 5915 5915 5914 5913 5914 5914 5914 5912 5911 5910 5909 5909 5910 5910 5910 5911 5911 5911 5912 5912 5912 5911 5911 5911 5911 5912 5912 5912 5912 5912 5912 5912 5911 5911 5911 5911 5910 5910 5910 5910
5912 5914 5917 5916 5916 5915 5915 5913 5916 5917 5916 5915 5912 5912 5912 5912 5910 5909 5908 5908 5908 5908 5908 5908 5908 5909 5909 5910 5909 5909 5909 5910 5909 5910 5911 5910 5910 5910 5909 5909 5909 5909 5908 5908 5908 5908 5907 5907 5907
5911 5915 5917 5918 5917 5921 5918 5911 5886 5916 5916 5911 5913 5912 5912 5910 5908 5908 5908 5908 5908 5908 5908 5907 5907 5908 5909 5909 5909 5909 5909 5909 5909 5909 5909 5908 5908 5907 5907 5906 5905 5905 5905 5905 5905 5904 5904 5903 5903
5911 5914 5916 5916 5921 5923 5914 5909 5906 5919 5914 5905 5912 5911 5910 5909 5908 5907 5907 5908 5907 5906 5907 5907 5908 5908 5909 5909 5909 5908 5908 5907 5907 5907 5906 5905 5904 5904 5903 5902 5902 5902 5901 5901 5901 5900 5899 5899 5899
5909 5912 5915 5917 5925 5925 5924 5918 5921 5913 5904 5900 5908 5908 5908 5908 5907 5906 5906 5905 5905 5905 5905 5905 5906 5906 5906 5906 5905 5905 5904 5903 5903 5902 5901 5900 5899 5898 5898 5896 5896 5896 5895 5894 5893 5893 5893 5892 5893
5907 5909 5913 5916 5925 5924 5924 5923 5915 5907 5908 5901 5905 5905 5906 5906 5907 5904 5904 5902 5902 5903 5902 5902 5902 5902 5902 5901 5900 5900 5899 5899 5898 5898 5897 5895 5895 5894 5892 5891 5891 5888 5886 5886 5886 5885 5884 5884 5885
5905 5906 5910 5915 5921 5923 5918 5921 5911 5903 5905 5897 5900 5905 5908 5905 5905 5904 5901 5900 5899 5898 5899 5899 5898 5899 5897 5898 5897 5895 5895 5894 5893 5892 5890 5889 5889 5887 5885 5885 5883 5882 5879 5880 5879 5875 5875 5877 5876
5905 5907 5911 5917 5925 5922 5914 5918 5908 5902 5906 5905 5903 5905 5905 5902 5903 5901 5899 5898 5897 5896 5895 5894 5894 5895 5897 5894 5892 5891 5889 5889 5888 5886 5884 5883 5881 5881 5879 5876 5876 5873 5873 5872 5869 5865 5868 5867 5865
5905 5908 5910 5921 5922 5917 5911 5913 5909 5911 5906 5904 5907 5905 5903 5902 5899 5897 5895 5895 5895 5894 5892 5892 5891 5890 5889 5889 5888 5887 5885 5884 5881 5880 5879 5877 5875 5874 5872 5869 5869 5867 5865 5864 5861 5858 5857 5855 5855
5904 5906 5909 5916 5915 5909 5904 5911 5906 5909 5903 5899 5904 5903 5902 5900 5898 5895 5893 5890 5889 5891 5889 5888 5887 5886 5885 5884 5883 5882 5880 5880 5880 5876 5875 5873 5872 5869 5867 5865 5861 5859 5857 5856 5854 5851 5849 5846 5843
5902 5904 5905 5907 5910 5911 5908 5909 5905 5906 5902 5898 5899 5901 5899 5898 5897 5895 5891 5889 5888 5887 5886 5886 5884 5883 5882 5881 5880 5880 5879 5877 5876 5874 5871 5869 5866 5863 5860 5857 5854 5850 5847 5844 5842 5839 5837 5835 5833
5899 5900 5901 5903 5904 5908 5907 5904 5903 5904 5897 5895 5897 5898 5897 5895 5893 5892 5889 5887 5886 5885 5884 5884 5883 5883 5882 5881 5879 5876 5875 5873 5870 5869 5867 5863 5860 5857 5854 5851 5847 5843 5838 5833 5830 5827 5824 5823 5821
5897 5898 5899 5899 5901 5902 5902 5900 5901 5899 5896 5894 5895 5895 5894 5893 5890 5889 5887 5885 5884 5883 5884 5884 5883 5882 5880 5878 5877 5875 5872 5869 5866 5863 5860 5858 5854 5849 5845 5841 5836 5832 5829 5825 5821 5818 5814 5810 5806
5893 5895 5896 5897 5898 5897 5898 5896 5896 5894 5892 5892 5892 5892 5891 5889 5888 5886 5884 5882 5882 5882 5882 5881 5881 5879 5877 5875 5872 5869 5867 5863 5859 5855 5851 5847 5844 5840 5837 5832 5826 5821 5816 5812 5809 5805 5802 5798 5795
5890 5891 5892 5892 5894 5894 5895 5895 5892 5890 5889 5889 5888 5887 5885 5884 5884 5882 5881 5880 5879 5880 5878 5877 5875 5874 5872 5869 5866 5863 5860 5856 5852 5847 5843 5837 5833 5828 5824 5820 5815 5810 5806 5801 5797 5793 5788 5785 5780
5887 5888 5889 5892 5888 5890 5891 5891 5891 5886 5884 5885 5884 5883 5882 5880 5879 5879 5877 5876 5876 5874 5874 5872 5870 5867 5864 5862 5859 5856 5852 5848 5843 5837 5832 5827 5822 5818 5813 5808 5802 5797 5793 5788 5783 5779 5774 5770 5765
5885 5886 5889 5891 5888 5886 5887 5888 5887 5885 5880 5880 5880 5879 5877 5877 5875 5874 5873 5872 5871 5869 5867 5865 5864 5862 5859 5854 5851 5848 5844 5839 5834 5828 5823 5817 5811 5806 5800 5795 5790 5785 5780 5774 5768 5763 5759 5753 5749
5884 5891 5890 5890 5891 5883 5882 5883 5884 5882 5877 5876 5875 5873 5872 5871 5870 5869 5869 5866 5864 5863 5861 5859 5857 5855 5852 5848 5844 5841 5836 5830 5825 5819 5814 5808 5801 5795 5788 5783 5778 5772 5766 5760 5753 5747 5742 5738 5733
5878 5881 5884 5888 5889 5883 5880 5878 5879 5880 5877 5872 5871 5871 5868 5866 5864 5863 5861 5862 5859 5856 5854 5853 5851 5847 5844 5840 5835 5831 5826 5821 5816 5809 5803 5795 5789 5782 5775 5768 5762 5755 5750 5744 5737 5730 5725 5721 5715
5874 5875 5877 5881 5884 5878 5876 5874 5875 5875 5874 5872 5868 5868 5865 5862 5859 5857 5854 5854 5855 5853 5848 5848 5844 5840 5836 5831 5825 5821 5815 5810 5803 5796 5789 5783 5776 5769 5762 5754 5747 5740 5733 5727 5720 5713 5708 5704 5700
5869 5872 5871 5874 5875 5875 5871 5868 5869 5870 5870 5869 5865 5864 5863 5860 5858 5854 5849 5845 5845 5845 5846 5840 5836 5830 5827 5821 5815 5811 5804 5798 5791 5784 5777 5770 5762 5755 5748 5740 5733 5724 5717 5710 5704 5698 5692 5685 5682
5865 5860 5865 5866 5865 5866 5866 5865 5867 5868 5866 5865 5860 5860 5860 5857 5856 5853 5850 5841 5836 5835 5836 5834 5829 5822 5816 5811 5806 5800 5793 5786 5779 5772 5765 5758 5751 5743 5735 5726 5717 5709 5702 5695 5688 5681 5675 5668 5663
5858 5857 5858 5858 5860 5857 5862 5861 5861 5863 5860 5860 5858 5855 5854 5853 5852 5851 5842 5834 5832 5830 5827 5822 5818 5813 5808 5803 5797 5790 5783 5776 5768 5761 5754 5747 5738 5729 5720 5711 5704 5696 5689 5681 5673 5666 5661 5656 5650
5852 5851 5854 5853 5853 5855 5856 5853 5856 5854 5851 5854 5851 5849 5848 5847 5846 5842 5833 5829 5827 5825 5821 5816 5811 5805 5801 5795 5789 5781 5773 5764 5757 5749 5741 5733 5724 5714 5706 5698 5691 5683 5675 5667 5660 5654 5649 5644 5638
5844 5847 5847 5847 5850 5853 5847 5850 5853 5848 5849 5852 5849 5846 5842 5841 5840 5833 5827 5823 5822 5819 5814 5807 5803 5797 5792 5785 5778 5770 5762 5754 5746 5737 5727 5717 5708 5700 5692 5685 5677 5669 5662 5655 5650 5645 5638 5633 5627
5843 5840 5844 5842 5843 5843 5846 5846 5838 5838 5837 5839 5840 5838 5836 5833 5828 5825 5822 5817 5813 5810 5806 5801 5795 5788 5781 5775 5767 5758 5750 5742 5734 5724 5713 5703 5695 5688 5679 5672 5665 5657 5651 5645 5640 5634 5627 5622 5615
5837 5840 5841 5837 5836 5837 5839 5841 5837 5831 5828 5827 5831 5831 5829 5826 5819 5819 5816 5811 5807 5802 5796 5793 5787 5780 5773 5765 5757 5749 5740 5731 5721 5710 5701 5692 5684 5674 5666 5658 5652 5647 5641 5636 5630 5624 5619 5612 5606
5831 5831 5831 5831 5833 5829 5829 5832 5830 5826 5824 5821 5822 5821 5819 5815 5810 5809 5809 5806 5802 5796 5790 5784 5778 5770 5763 5756 5748 5739 5730 5719 5709 5699 5690 5680 5670 5659 5649 5644 5641 5637 5633 5627 5622 5616 5609 5603 5600
5823 5827 5825 5823 5825 5826 5823 5824 5820 5817 5820 5817 5818 5817 5812 5809 5809 5806 5801 5798 5794 5788 5782 5776 5769 5762 5755 5747 5739 5730 5719 5709 5699 5689 5679 5669 5659 5651 5644 5639 5634 5629 5624 5619 5614 5607 5600 5597 5592